• In Uzbekistan
  • List of Countries
  • For 7 days
  • Water Temperature
  • Satellite Maps
  • Weather Map
  • Weather Widgets
  • user-avatar
    Login

    Hourly Weather Nottuln

    Today, 24 September, Sunday

    Time Temperature Precipitation Wind Pressure Humidity
    00:00 +13°C° 0 mm 1 mps 757 mmHg 90%
    01:00 +12°C° 0 mm 1 mps 757 mmHg 91%
    02:00 +12°C° 0 mm 1 mps 757 mmHg 91%
    03:00 +12°C° 0 mm 1 mps 757 mmHg 92%
    04:00 +12°C° 0 mm 1 mps 757 mmHg 92%
    05:00 +12°C° 0 mm 1 mps 757 mmHg 92%
    06:00 +12°C° 0 mm 1 mps 758 mmHg 92%
    07:00 +14°C° 0 mm 1 mps 758 mmHg 86%
    08:00 +15°C° 0 mm 1 mps 758 mmHg 81%
    09:00 +18°C° 0 mm 1 mps 758 mmHg 75%
    10:00 +18°C° 0 mm 2 mps 758 mmHg 70%
    11:00 +19°C° 0 mm 2 mps 757 mmHg 65%
    12:00 +19°C° 0 mm 2 mps 757 mmHg 60%
    13:00 +19°C° 0 mm 2 mps 757 mmHg 60%
    14:00 +19°C° 0 mm 2 mps 757 mmHg 61%
    15:00 +19°C° 0 mm 3 mps 757 mmHg 61%
    16:00 +18°C° 0 mm 2 mps 757 mmHg 67%
    17:00 +17°C° 0 mm 2 mps 757 mmHg 74%
    18:00 +15°C° 0 mm 2 mps 757 mmHg 80%
    19:00 +15°C° 0 mm 2 mps 757 mmHg 83%
    20:00 +14°C° 0 mm 2 mps 757 mmHg 87%
    21:00 +14°C° 0 mm 1 mps 757 mmHg 90%
    22:00 +13°C° 0 mm 1 mps 757 mmHg 91%
    23:00 +13°C° 0 mm 1 mps 757 mmHg 92%

    Tomorrow, 25 September, Monday

    Time Temperature Precipitation Wind Pressure Humidity
    00:00 +13°C° 0 mm 1 mps 757 mmHg 93%
    01:00 +13°C° 0 mm 1 mps 756 mmHg 93%
    02:00 +12°C° 0 mm 1 mps 756 mmHg 93%
    03:00 +12°C° 0 mm 1 mps 756 mmHg 94%
    04:00 +12°C° 0 mm 1 mps 756 mmHg 94%
    05:00 +12°C° 0 mm 1 mps 756 mmHg 94%
    06:00 +12°C° 0 mm 1 mps 756 mmHg 94%
    07:00 +13°C° 0 mm 1 mps 756 mmHg 89%
    08:00 +15°C° 0 mm 2 mps 756 mmHg 83%
    09:00 +16°C° 0 mm 2 mps 756 mmHg 78%
    10:00 +17°C° 0.1 mm 2 mps 755 mmHg 75%
    11:00 +18°C° 0.1 mm 2 mps 755 mmHg 73%
    12:00 +18°C° 0.1 mm 2 mps 755 mmHg 70%
    13:00 +19°C° 0.1 mm 2 mps 754 mmHg 69%
    14:00 +19°C° 0.1 mm 2 mps 754 mmHg 67%
    15:00 +19°C° 0.1 mm 2 mps 754 mmHg 65%
    16:00 +18°C° 0 mm 2 mps 754 mmHg 71%
    17:00 +17°C° 0 mm 2 mps 754 mmHg 76%
    18:00 +15°C° 0 mm 2 mps 754 mmHg 81%
    19:00 +15°C° 0 mm 2 mps 754 mmHg 83%
    20:00 +14°C° 0 mm 2 mps 755 mmHg 85%
    21:00 +14°C° 0 mm 2 mps 755 mmHg 87%
    22:00 +13°C° 0 mm 2 mps 755 mmHg 88%
    23:00 +13°C° 0 mm 2 mps 755 mmHg 88%

    Day after tomorrow, 26 September, Tuesday

    Time Temperature Precipitation Wind Pressure Humidity
    00:00 +13°C° 0 mm 2 mps 754 mmHg 89%
    01:00 +13°C° 0 mm 1 mps 755 mmHg 89%
    02:00 +12°C° 0 mm 1 mps 755 mmHg 89%
    03:00 +12°C° 0 mm 1 mps 755 mmHg 89%
    04:00 +12°C° 0 mm 1 mps 755 mmHg 89%
    05:00 +12°C° 0 mm 1 mps 755 mmHg 89%
    06:00 +12°C° 0 mm 1 mps 755 mmHg 89%
    07:00 +14°C° 0 mm 1 mps 755 mmHg 83%
    08:00 +15°C° 0 mm 1 mps 755 mmHg 77%
    09:00 +17°C° 0 mm 2 mps 756 mmHg 70%
    10:00 +19°C° 0 mm 1 mps 756 mmHg 66%
    11:00 +20°C° 0 mm 1 mps 756 mmHg 61%
    12:00 +22°C° 0 mm 1 mps 756 mmHg 57%
    13:00 +22°C° 0 mm 1 mps 756 mmHg 56%
    14:00 +22°C° 0 mm 1 mps 756 mmHg 56%
    15:00 +22°C° 0 mm 1 mps 756 mmHg 55%
    16:00 +20°C° 0 mm 1 mps 756 mmHg 61%
    17:00 +19°C° 0 mm 1 mps 756 mmHg 66%
    18:00 +18°C° 0 mm 1 mps 756 mmHg 72%
    19:00 +16°C° 0 mm 1 mps 757 mmHg 74%
    20:00 +15°C° 0 mm 1 mps 757 mmHg 77%
    21:00 +15°C° 0 mm 2 mps 757 mmHg 80%
    22:00 +14°C° 0 mm 1 mps 757 mmHg 82%
    23:00 +14°C° 0 mm 1 mps 757 mmHg 83%

    27 September, Wednesday

    Time Temperature Precipitation Wind Pressure Humidity
    00:00 +14°C° 0 mm 1 mps 757 mmHg 85%
    01:00 +14°C° 0 mm 1 mps 757 mmHg 86%
    02:00 +13°C° 0 mm 1 mps 757 mmHg 87%
    03:00 +13°C° 0 mm 1 mps 757 mmHg 88%
    04:00 +13°C° 0 mm 1 mps 757 mmHg 88%
    05:00 +13°C° 0 mm 1 mps 758 mmHg 89%
    06:00 +13°C° 0 mm 1 mps 758 mmHg 89%
    07:00 +14°C° 0 mm 1 mps 758 mmHg 84%
    08:00 +16°C° 0 mm 1 mps 758 mmHg 78%
    09:00 +18°C° 0 mm 2 mps 758 mmHg 72%
    10:00 +19°C° 0 mm 2 mps 758 mmHg 68%
    11:00 +20°C° 0 mm 2 mps 758 mmHg 64%
    12:00 +21°C° 0 mm 2 mps 758 mmHg 60%
    13:00 +21°C° 0 mm 2 mps 758 mmHg 61%
    14:00 +22°C° 0 mm 1 mps 758 mmHg 61%
    15:00 +22°C° 0 mm 1 mps 758 mmHg 61%
    16:00 +21°C° 0 mm 1 mps 758 mmHg 65%
    17:00 +19°C° 0 mm 1 mps 758 mmHg 70%
    18:00 +18°C° 0 mm 1 mps 758 mmHg 75%
    19:00 +18°C° 0 mm 1 mps 758 mmHg 76%
    20:00 +16°C° 0 mm 1 mps 759 mmHg 78%
    21:00 +16°C° 0 mm 2 mps 759 mmHg 80%
    22:00 +15°C° 0 mm 2 mps 759 mmHg 81%
    23:00 +15°C° 0 mm 2 mps 759 mmHg 82%

    28 September, Thursday

    Time Temperature Precipitation Wind Pressure Humidity
    00:00 +15°C° 0 mm 2 mps 759 mmHg 83%
    01:00 +15°C° 0 mm 2 mps 759 mmHg 83%
    02:00 +15°C° 0 mm 2 mps 759 mmHg 83%
    03:00 +15°C° 0 mm 2 mps 758 mmHg 83%
    04:00 +15°C° 0 mm 2 mps 759 mmHg 82%
    05:00 +15°C° 0 mm 2 mps 759 mmHg 81%
    06:00 +15°C° 0 mm 2 mps 759 mmHg 80%
    07:00 +16°C° 0 mm 2 mps 759 mmHg 78%
    08:00 +17°C° 0 mm 2 mps 759 mmHg 75%
    09:00 +18°C° 0 mm 2 mps 759 mmHg 72%
    10:00 +19°C° 0 mm 2 mps 759 mmHg 69%
    11:00 +20°C° 0 mm 2 mps 759 mmHg 66%
    12:00 +21°C° 0 mm 3 mps 759 mmHg 62%
    13:00 +21°C° 0 mm 2 mps 759 mmHg 63%
    14:00 +21°C° 0 mm 2 mps 759 mmHg 65%
    15:00 +22°C° 0 mm 1 mps 759 mmHg 66%
    16:00 +21°C° 0 mm 1 mps 759 mmHg 68%
    17:00 +20°C° 0 mm 1 mps 760 mmHg 69%
    18:00 +20°C° 0 mm 1 mps 760 mmHg 71%
    19:00 +19°C° 0 mm 1 mps 760 mmHg 73%
    20:00 +19°C° 0 mm 1 mps 760 mmHg 74%
    21:00 +18°C° 0 mm 2 mps 760 mmHg 75%
    22:00 +17°C° 0 mm 2 mps 760 mmHg 78%
    23:00 +16°C° 0 mm 2 mps 760 mmHg 80%

    29 September, Friday

    Time Temperature Precipitation Wind Pressure Humidity
    00:00 +16°C° 0 mm 2 mps 760 mmHg 82%
    01:00 +16°C° 0 mm 2 mps 760 mmHg 83%
    02:00 +15°C° 0 mm 2 mps 759 mmHg 84%
    03:00 +15°C° 0 mm 2 mps 759 mmHg 85%
    04:00 +15°C° 0 mm 2 mps 759 mmHg 85%
    05:00 +15°C° 0 mm 2 mps 759 mmHg 85%
    06:00 +15°C° 0 mm 2 mps 759 mmHg 85%
    07:00 +16°C° 0 mm 2 mps 759 mmHg 79%
    08:00 +18°C° 0 mm 2 mps 759 mmHg 74%
    09:00 +19°C° 0 mm 2 mps 759 mmHg 68%
    10:00 +21°C° 0 mm 3 mps 758 mmHg 63%
    11:00 +22°C° 0 mm 3 mps 758 mmHg 59%
    12:00 +24°C° 0 mm 3 mps 758 mmHg 54%
    13:00 +24°C° 0 mm 3 mps 757 mmHg 55%
    14:00 +24°C° 0 mm 2 mps 757 mmHg 56%
    15:00 +24°C° 0 mm 2 mps 756 mmHg 57%
    16:00 +23°C° 0 mm 2 mps 756 mmHg 60%
    17:00 +21°C° 0 mm 2 mps 756 mmHg 64%
    18:00 +19°C° 0 mm 3 mps 756 mmHg 68%
    19:00 +19°C° 0 mm 3 mps 756 mmHg 70%
    20:00 +18°C° 0 mm 3 mps 755 mmHg 72%
    21:00 +18°C° 0 mm 3 mps 755 mmHg 74%
    22:00 +18°C° 0 mm 3 mps 755 mmHg 74%
    23:00 +17°C° 0 mm 3 mps 754 mmHg 75%
    Show more